Lid_Strength_Index
13 12 12 13 13 12 14 13 16 15 15 12 12 11 10 9 7 8 7 7 6 6 5 5 4 4 4 4 4 3 3 3 3 3 3 3 3 2 2 2 1 1 2 2
14 12 12 14 12 12 12 12 13 14 14 11 10 9 8 8 8 8 7 7 6 5 5 5 4 4 4 4 3 3 3 3 2 2 3 3 3 2 2 1 1 1 3 3
17 12 14 16 13 12 12 10 12 15 11 10 9 9 9 8 7 7 7 6 6 5 5 4 4 4 5 4 3 3 3 2 2 2 3 3 2 3 2 3 2 3 4 4
16 15 21 13 10 9 11 10 9 10 10 9 9 8 8 7 8 7 6 6 5 5 4 4 4 4 5 4 3 3 3 3 2 2 2 3 3 3 4 3 2 4 4 4
17 18 15 13 12 12 13 13 10 11 10 9 8 8 9 6 6 6 6 5 4 4 4 4 5 5 4 3 3 3 3 3 2 2 3 3 3 3 4 4 4 4 5 5
16 19 20 14 10 8 9 16 9 9 10 10 9 13 10 6 5 5 5 4 4 4 4 4 5 5 4 3 3 3 3 3 2 2 2 3 3 3 3 3 4 3 5 5
16 17 15 10 10 9 16 15 9 8 9 9 10 9 7 6 5 5 5 5 4 4 4 5 6 5 4 3 4 3 2 2 2 2 2 2 3 3 3 3 3 4 4 5
15 17 19 10 11 13 10 8 8 8 9 8 7 7 6 6 6 5 5 4 4 4 5 6 5 4 4 4 3 3 3 3 3 3 2 2 3 3 3 3 4 5 5 5
14 14 11 11 11 7 7 8 7 8 8 8 7 7 6 6 6 5 5 4 4 4 6 6 5 4 4 3 4 3 3 4 3 3 3 3 3 4 4 4 4 4 4 4
12 10 9 9 7 7 6 7 7 7 7 7 7 7 7 6 5 5 5 5 5 6 6 6 6 5 3 5 4 3 4 3 3 3 3 3 3 3 4 4 4 4 4 4
11 9 8 8 7 6 7 7 7 6 6 6 7 7 7 7 6 5 5 4 5 5 6 6 6 5 4 4 2 3 3 3 3 3 3 4 4 5 3 3 4 3 4 4
13 9 9 9 7 6 7 6 7 7 7 6 7 7 7 6 6 6 5 6 4 5 5 5 5 5 4 3 2 3 3 3 3 3 3 4 5 7 13 10 9 8 8 5
9 7 7 7 7 6 7 7 6 6 6 7 6 7 7 7 6 7 5 5 4 5 4 5 5 5 4 2 2 3 3 3 3 3 3 5 5 5 5 8 12 11 12 9
6 7 8 7 8 6 6 6 7 6 7 6 6 6 6 7 7 6 5 5 4 4 4 5 5 5 4 3 2 2 3 7 3 3 3 4 5 5 5 6 6 6 12 11
7 6 6 6 7 7 7 7 8 8 7 7 6 7 6 7 8 7 6 6 7 7 6 4 4 4 4 3 2 3 3 3 2 3 3 5 5 6 6 6 5 5 8 11
6 7 7 8 9 9 8 8 8 8 9 7 7 7 7 6 6 7 7 8 9 10 8 9 7 6 3 4 3 2 3 6 5 3 4 5 5 6 6 6 5 5 6 6
8 8 8 8 8 8 8 8 8 8 8 8 8 7 7 6 7 8 9 8 8 10 10 9 10 7 6 4 4 2 2 4 5 3 4 4 4 5 5 6 6 6 5 7
6 6 7 8 8 9 9 9 9 9 9 8 8 8 8 8 8 9 9 9 10 9 10 10 10 9 8 8 8 5 2 3 3 3 3 3 4 4 4 5 6 6 6 7
6 6 7 7 7 8 8 8 9 9 9 8 8 9 9 8 9 9 9 11 12 12 12 9 12 10 8 9 9 4 4 3 3 3 3 6 5 4 4 4 5 5 6 7
6 7 7 7 8 8 8 8 8 9 8 9 9 10 10 10 9 10 10 11 12 13 12 9 10 10 9 8 10 5 4 5 4 3 5 5 4 5 4 7 4 4 5 6
5 6 7 7 8 8 8 8 9 9 9 9 10 11 11 11 11 12 13 13 13 12 12 12 12 12 9 10 7 6 5 3 4 5 5 5 6 6 5 4 3 3 3 4
5 6 7 7 8 8 8 9 9 9 9 10 10 10 11 11 11 12 12 13 13 14 13 13 13 15 13 12 6 7 7 6 5 3 4 5 6 6 6 6 6 5 3 3
5 5 6 7 7 8 8 9 9 9 10 10 11 11 11 12 11 12 13 13 12 14 13 13 15 16 15 9 8 9 10 10 8 6 5 4 3 3 4 5 5 5 6 6
5 5 6 6 6 7 9 9 9 9 10 10 11 11 11 12 12 11 11 12 14 13 14 14 15 15 13 10 10 10 12 12 10 10 9 12 8 7 6 5 5 5 5 5
5 5 5 6 7 8 8 8 9 10 10 11 11 11 11 11 12 12 11 12 13 13 13 14 15 14 12 12 11 12 12 13 13 12 12 11 11 10 9 7 8 9 8 8
5 6 6 6 7 7 8 8 9 10 10 11 11 11 11 11 12 12 12 12 12 13 13 13 13 13 12 13 13 13 13 13 13 13 13 13 12 12 11 11 11 10 10 10
6 6 6 6 6 7 7 8 9 10 10 10 11 11 11 11 12 13 13 12 12 12 13 13 13 13 13 13 13 13 13 13 14 14 14 14 13 13 13 13 12 13 13 12